Richmond, VA

2:04 PM EDT on May 26, 2018 (GMT -0400)
Richmond International

Weather History for KRIC - January, 2012

Change the Weather History Date:

Friday, January 13, 2012

  Actual Average Record
Temperature  
Mean Temperature 43 °F 38 °F  
Max Temperature 54 °F 47 °F 75 °F (2005)
Min Temperature 32 °F 28 °F 1 °F (1912)
Degree Days  
Heating Degree Days 22 27  
Month to date heating degree days 277 351  
Since 1 July heating degree days 1404 1770  
Cooling Degree Days 0 0  
Month to date cooling degree days 0 0  
Year to date cooling degree days 0 0  
Moisture  
Dew Point 21 °F    
Average Humidity 51    
Maximum Humidity 71    
Minimum Humidity 30    
Precipitation  
Precipitation T in 0.10 in 1.74 in (1948)
Month to date precipitation 0.89 1.27  
Year to date precipitation 0.89 1.27  
Snow  
Snow 0.00 in 0.10 in 1.50 in (1964)
Month to date snowfall T 1.3  
Since 1 July snowfall T 3.6  
Snow Depth 0.00 in    
Sea Level Pressure  
Sea Level Pressure 29.76 in    
Wind  
Wind Speed 19 mph (WSW)    
Max Wind Speed 33 mph    
Max Gust Speed 43 mph    
Visibility 10 miles    
Events      
T = Trace of Precipitation, MM = Missing Value Source: NWS Daily Summary

Daily Weather History Graph

Daily Weather History Graph

Search for Another Location

Airport or City:

Astronomy

Jan. 13, 2012 Rise Set
Actual Time 7:23 AM EST 5:12 PM EST
Civil Twilight 6:54 AM EST 5:41 PM EST
Nautical Twilight 6:22 AM EST 6:13 PM EST
Astronomical Twilight 5:51 AM EST 6:44 PM EST
Moon 10:15 PM EST (1/13) 9:43 AM EST (1/13)
Length of Visible Light 10h 46m
Length of Day
9h 48m
Waning Gibbous, 79% of the Moon is Illuminated
Jan 13
Waning Gibbous
Jan 16
Last Quarter
Jan 23
New
Jan 30
First Quarter
Feb 7
Full

Hourly Weather History & Observations

Time (EST) Temp. Windchill Dew Point Humidity Pressure Visibility Wind Dir Wind Speed Gust Speed Precip Events Conditions
12:54 AM 53.1 °F - 45.0 °F 74% 29.44 in 10.0 mi South 15.0 mph 24.2 mph 0.00 in   Scattered Clouds
1:54 AM 53.1 °F - 45.0 °F 74% 29.43 in 10.0 mi South 18.4 mph - N/A   Mostly Cloudy
2:54 AM 54.0 °F - 43.0 °F 66% 29.45 in 10.0 mi West 21.9 mph 36.8 mph N/A   Scattered Clouds
3:02 AM 51.8 °F - 35.6 °F 54% 29.45 in 10.0 mi WSW 25.3 mph 42.6 mph N/A   Mostly Cloudy
3:54 AM 46.9 °F - 35.1 °F 63% 29.51 in 10.0 mi West 17.3 mph 28.8 mph N/A   Mostly Cloudy
4:54 AM 42.1 °F 33.9 °F 26.1 °F 53% 29.59 in 10.0 mi West 17.3 mph - N/A   Mostly Cloudy
5:54 AM 39.9 °F 31.4 °F 17.1 °F 40% 29.62 in 10.0 mi West 16.1 mph 33.4 mph N/A   Partly Cloudy
6:54 AM 37.9 °F 26.8 °F 16.0 °F 41% 29.68 in 10.0 mi WSW 24.2 mph 31.1 mph N/A   Partly Cloudy
7:54 AM 36.0 °F 24.7 °F 16.0 °F 44% 29.72 in 10.0 mi WSW 21.9 mph 27.6 mph N/A   Partly Cloudy
8:54 AM 37.0 °F 25.6 °F 14.0 °F 39% 29.76 in 10.0 mi West 24.2 mph 38.0 mph N/A   Partly Cloudy
9:54 AM 37.9 °F 26.6 °F 15.1 °F 39% 29.78 in 10.0 mi WSW 25.3 mph 32.2 mph N/A   Scattered Clouds
10:54 AM 39.0 °F 27.8 °F 14.0 °F 36% 29.79 in 10.0 mi West 26.5 mph 39.1 mph N/A   Scattered Clouds
11:54 AM 41.0 °F 30.2 °F 12.9 °F 32% 29.78 in 10.0 mi WSW 27.6 mph 32.2 mph N/A   Partly Cloudy
12:54 PM 41.0 °F 31.1 °F 14.0 °F 33% 29.78 in 10.0 mi West 23.0 mph 38.0 mph N/A   Partly Cloudy
1:54 PM 42.1 °F 32.3 °F 14.0 °F 32% 29.80 in 10.0 mi West 24.2 mph 33.4 mph N/A   Partly Cloudy
2:54 PM 42.1 °F 31.9 °F 15.1 °F 34% 29.83 in 10.0 mi West 26.5 mph 34.5 mph N/A   Partly Cloudy
3:54 PM 42.1 °F 33.3 °F 15.1 °F 34% 29.86 in 10.0 mi WSW 19.6 mph 33.4 mph N/A   Partly Cloudy
4:54 PM 41.0 °F 31.6 °F 15.1 °F 35% 29.89 in 10.0 mi West 20.7 mph 26.5 mph N/A   Scattered Clouds
5:54 PM 39.0 °F 34.0 °F 16.0 °F 39% 29.92 in 10.0 mi West 6.9 mph - N/A   Scattered Clouds
6:54 PM 37.9 °F 30.0 °F 16.0 °F 41% 29.94 in 10.0 mi West 12.7 mph 24.2 mph N/A   Mostly Cloudy
7:54 PM 37.0 °F 27.7 °F 16.0 °F 42% 29.97 in 10.0 mi West 16.1 mph 23.0 mph N/A   Overcast
8:54 PM 35.1 °F 24.8 °F 16.0 °F 46% 29.99 in 10.0 mi WSW 17.3 mph 23.0 mph N/A   Overcast
9:54 PM 34.0 °F 24.2 °F 15.1 °F 46% 30.01 in 10.0 mi West 15.0 mph 24.2 mph N/A   Overcast
10:54 PM 33.1 °F 24.4 °F 15.1 °F 48% 30.01 in 10.0 mi West 11.5 mph - N/A   Mostly Cloudy
11:54 PM 32.0 °F 23.0 °F 15.1 °F 50% 30.00 in 10.0 mi West 11.5 mph 20.7 mph N/A   Mostly Cloudy